Flag for Italy Weather past 2 weeks in Modena, Italy

Now
57 °F

Passing clouds.


Feels Like: 55 °F
Forecast: 36 / 64 °F
Wind: 8 mph from Northeast

Location: Bologna / Borgo Panigale


UV Index: 5 (Moderate)

Visibility: N/A


Pressure: 30.15 "Hg

Humidity: 44%

Dew point: 36 °F

Location of ModenaLocation

Historic Weather in Modena

°F

Modena temperature yesterday

Maximum temperature yesterday: 63 °F (at 3:20 PM)
Minimum temperature yesterday: 50 °F (at 3:50 AM)
Average temperature yesterday: 57 °F

Past Weeks' High & Low Weather Summary

 TemperatureHumidityPressure
High77 °F (Apr 8, 3:20 PM)100% (Apr 4, 3:50 AM)30.18 "Hg (Apr 4, 3:50 AM)
Low43 °F (Apr 16, 6:50 AM)31% (Apr 15, 6:20 PM)29.65 "Hg (Apr 4, 1:20 PM)
Average58 °F71%29.96 "Hg
* Reported Apr 1 11:20 AM — Apr 16 11:50 AM, Modena, Weather by CustomWeather, © 2014

Note: Actual official high and low records may vary slightly from our data, if they occured in-between our weather recording intervals... More about our weather records

Advertising

Historic Weather Conditions — Data for Previous 24 hours

 ConditionsComfort  
Time TempWeatherWind HumidityBarometerVisibility
11:50 AM
Apr 16
55 °FPassing clouds.8 mph47%30.18 "HgN/A
11:20 AM55 °FPassing clouds.7 mph44%30.18 "HgN/A
10:50 AM55 °FPassing clouds.7 mph55%30.18 "HgN/A
10:20 AM54 °FPassing clouds.6 mph63%30.18 "HgN/A
9:50 AM52 °FPassing clouds.5 mph67%30.15 "HgN/A
9:20 AM50 °FPassing clouds.3 mph71%30.15 "HgN/A
8:50 AM48 °FSunny.2 mph76%30.15 "Hg10 mi
8:20 AM46 °FPassing clouds.3 mph82%30.12 "HgN/A
7:50 AM45 °FPassing clouds.6 mph81%30.12 "HgN/A
7:20 AM43 °FClear.2 mph87%30.12 "Hg10 mi
6:50 AM43 °FPassing clouds.3 mph87%30.09 "HgN/A
6:20 AM45 °FPassing clouds.8 mph81%30.09 "HgN/A
5:50 AM45 °FPassing clouds.10 mph87%30.09 "HgN/A
5:20 AM46 °FLight rain. Passing clouds.6 mph71%30.09 "HgN/A
4:50 AM45 °FThunderstorms. Passing clouds.1 mph87%30.12 "Hg5 mi
4:20 AM46 °FLight rain. Passing clouds.14 mph76%30.09 "HgN/A
3:50 AM46 °FPassing clouds.18 mph76%30.09 "HgN/A
3:20 AM46 °FPassing clouds.16 mph76%30.09 "HgN/A
2:50 AM48 °FPassing clouds.5 mph66%30.07 "HgN/A
1:50 AM48 °FClear.5 mph66%30.07 "Hg10 mi
12:50 AM50 °FPassing clouds.3 mph67%30.07 "HgN/A
12:20 AM52 °FPassing clouds.2 mph58%30.07 "HgN/A
11:50 PM
Apr 15
52 °FPassing clouds.1 mph58%30.07 "HgN/A
11:20 PM54 °FPassing clouds.9 mph54%30.04 "HgN/A
10:50 PM54 °FPassing clouds.12 mph51%30.04 "HgN/A
10:20 PM52 °FPassing clouds.9 mph50%30.01 "HgN/A
9:50 PM50 °FPassing clouds.2 mph54%30.01 "HgN/A
9:20 PM50 °FPassing clouds.3 mph47%30.01 "HgN/A
8:50 PM50 °FSunny.5 mph43%29.98 "Hg10 mi
8:20 PM52 °FSunny.7 mph41%29.98 "Hg10 mi
7:50 PM55 °FSunny.10 mph36%29.95 "Hg10 mi
7:20 PM57 °FSunny.12 mph36%29.95 "Hg10 mi
6:50 PM59 °FSunny.12 mph34%29.95 "Hg10 mi
6:20 PM61 °FPassing clouds.10 mph31%29.95 "HgN/A
5:50 PM61 °FPassing clouds.9 mph34%29.95 "HgN/A
5:20 PM61 °FPassing clouds.10 mph34%29.95 "HgN/A
4:50 PM63 °FPassing clouds.8 mph34%29.95 "HgN/A
4:20 PM63 °FPassing clouds.9 mph32%29.95 "HgN/A
3:50 PM61 °FPassing clouds.10 mph39%29.95 "HgN/A
3:20 PM63 °FPassing clouds.7 mph34%29.95 "HgN/A
2:50 PM61 °FPassing clouds.6 mph39%29.95 "HgN/A
2:20 PM55 °FScattered clouds.7 mph55%29.98 "HgN/A
1:50 PM61 °FScattered clouds.14 mph34%29.95 "HgN/A
1:20 PM61 °FPartly sunny.18 mph34%29.95 "HgN/A
Weather by CustomWeather, © 2014

See weather overview